Location: Borgo
(42.3939°N, 9.2791°E)
Time: 19:01:08
(UTC+00:00)

Hubble Space Telescope - Pass Details

Date: 24 January 2021
Orbit: 535 x 539 km, 28.5° (Epoch: 03 March)

Event Time Altitude Azimuth Distance (km) Brightness Sun altitude
Rises 17:18:21 0° 237° (WSW) 2,672 6.1 -9.7°
Reaches altitude 10° 17:22:08 10° 203° (SSW) 1,782 4.0 -10.4°
Maximum altitude 17:23:24 11° 184° (S) 1,703 3.6 -10.6°
Drops below altitude 10° 17:24:41 10° 166° (SSE) 1,782 3.5 -10.8°
Enters shadow 17:28:21 - 132° (SE) 2,642 4.0 -11.5°
